Location: El Centro
(32.7920°N, 115.5620°W)
Time: 04:55:05
(UTC-07:00)

Amateur Radio Satellites - All Passes

Search period start: 27 March 2015 04:25
Search period end: 28 March 2015 04:25
Location: El Centro, 32.7920°N, 115.5620°W

Satellite Date Start Highest point End Downlink Frequencies (MHz)
Time Altitude Azimuth
SO-50 27 Mar 04:29:08 04:33:51 44° 57° (ENE) 04:38:32 436.795
AIST 1 27 Mar 04:33:56 04:38:21 89° 287° (WNW) 04:42:47
M-CUBED/EXP-1 PRIME 27 Mar 04:36:48 04:40:18 35° 68° (ENE) 04:44:09 437.505
HORYU 2 27 Mar 04:39:11 04:43:33 51° 285° (WNW) 04:47:54 437.375
GONETS M04 27 Mar 05:13:13 05:15:18 11° 62° (ENE) 05:18:16
MOZHAYETS 4 27 Mar 05:24:14 05:28:25 33° 263° (W) 05:32:35
CUBESAT XI-V 27 Mar 05:28:13 05:31:05 17° 70° (ENE) 05:34:09 437.345
JAS-2 27 Mar 05:39:10 05:46:38 51° 289° (WNW) 05:53:27 435.910
RS-15 27 Mar 05:41:09 05:52:43 72° 246° (WSW) 06:04:41 29.354- 29.394
PRISM 27 Mar 05:46:40 05:49:42 20° 71° (ENE) 05:52:53 437.425
AO-7 27 Mar 05:47:15 05:55:08 49° 292° (WNW) 06:02:56 29.400- 29.500
VERMONT LUNAR 27 Mar 05:48:04 05:51:22 56° 150° (SSE) 05:54:40 437.305
AUBIESAT-1 27 Mar 05:49:37 05:52:57 28° 260° (W) 05:56:31 437.475
PHONESAT 2.4 27 Mar 06:07:23 06:10:31 31° 146° (SE) 06:13:42 2401.200-2431.200
SO-50 27 Mar 06:10:44 06:14:07 18° 250° (WSW) 06:17:15 436.795
M-CUBED/EXP-1 PRIME 27 Mar 06:13:36 06:15:31 13° 266° (W) 06:17:17 437.505
ISS 27 Mar 06:45:40 06:48:49 50° 41° (NE) 06:51:57 145.825
Cubesat XI-IV 27 Mar 06:46:28 06:51:43 58° 100° (E) 06:56:57 437.490
CUTE-I 27 Mar 06:47:03 06:52:18 59° 100° (E) 06:57:31 437.470
STRAND 1 27 Mar 06:49:10 06:54:17 72° 76° (ENE) 06:59:27 437.568
CUBESAT XI-V 27 Mar 07:03:49 07:08:15 40° 262° (W) 07:12:41 437.345
GONETS M04 27 Mar 07:05:08 07:13:58 76° 82° (E) 07:22:49
PRISM 27 Mar 07:21:30 07:25:04 26° 264° (W) 07:28:34 437.425
VERMONT LUNAR 27 Mar 07:26:11 07:29:13 31° 345° (NNW) 07:32:16 437.305
DANDE 27 Mar 07:35:40 07:38:13 16° 79° (ENE) 07:41:23 436.750
PHONESAT 2.4 27 Mar 07:45:24 07:48:49 46° 340° (NNW) 07:52:14 2401.200-2431.200
RS-15 27 Mar 07:59:31 08:03:53 12° 259° (WSW) 08:06:51 29.354- 29.394
GOMX 1 27 Mar 08:16:18 08:18:00 12° 92° (E) 08:20:00 467.674
HO-68 27 Mar 08:22:55 08:28:12 23° 94° (E) 08:33:45 435.675
Cubesat XI-IV 27 Mar 08:28:24 08:31:23 15° 294° (WNW) 08:34:05 437.490
CUTE-I 27 Mar 08:28:59 08:31:57 15° 294° (WNW) 08:34:38 437.470
SEEDS 27 Mar 08:32:21 08:34:15 13° 91° (E) 08:36:22 437.485
CUSAT 1 27 Mar 08:42:43 08:47:03 63° 263° (W) 08:52:53 437.405
BRITE-PL 27 Mar 08:53:01 08:57:09 58° 100° (E) 09:01:30 437.365/2234.400
COMPASS 1 27 Mar 08:57:26 09:00:40 21° 94° (E) 09:03:59 437.405
GONETS M04 27 Mar 09:04:19 09:10:02 18° 277° (W) 09:15:12
VERMONT LUNAR 27 Mar 09:04:53 09:07:31 21° 2° (N) 09:10:12 437.305
DANDE 27 Mar 09:17:32 09:21:22 34° 262° (W) 09:26:17 436.750
CANX-2 27 Mar 09:18:50 09:23:09 70° 100° (E) 09:27:26 2200.000
PHONESAT 2.4 27 Mar 09:24:47 09:27:40 23° 356° (N) 09:30:34 2401.200-2431.200
UNISAT 6 27 Mar 09:27:26 09:28:31 11° 68° (ENE) 09:29:53 437.425
CUTE 1.7 + AOD 2 27 Mar 09:33:09 09:37:28 86° 284° (WNW) 09:41:47 437.475
TIGRISAT 27 Mar 09:37:39 09:39:53 15° 69° (ENE) 09:42:20 435.000
CINEMA 3 27 Mar 09:49:38 09:53:58 55° 100° (E) 09:58:31 145.822/145.860
GOMX 1 27 Mar 09:52:19 09:56:22 42° 285° (WNW) 10:00:35 467.674
DOVE 4 27 Mar 09:52:22 09:56:39 66° 284° (WNW) 10:01:11 437.250
DX 1 27 Mar 09:52:47 09:54:42 13° 92° (E) 09:56:52 434.975-435.025
NANOSAT C BR1 27 Mar 09:53:58 09:55:04 11° 69° (ENE) 09:56:26 145.865
POLYITAN 1 27 Mar 09:55:32 09:57:04 12° 69° (ENE) 09:58:50 437.675
BEESAT 3 27 Mar 10:00:38 10:04:07 28° 113° (ESE) 10:07:42 437.485
DELFI C3 27 Mar 10:01:39 10:05:27 36° 98° (E) 10:09:15 145.870
ANTELSAT 27 Mar 10:04:59 10:08:45 32° 73° (ENE) 10:12:35 437.575/2403.000
SEEDS 27 Mar 10:06:16 10:10:17 40° 286° (WNW) 10:14:17 437.485
AAUSAT CUBESAT 2 27 Mar 10:07:03 10:11:13 57° 284° (WNW) 10:15:22 437.432
HUMSAT D 27 Mar 10:08:04 10:09:53 13° 92° (E) 10:11:59 437.325/437.525
HO-68 27 Mar 10:09:18 10:16:20 56° 289° (WNW) 10:23:17 435.675
Oscar 11 27 Mar 10:14:17 10:18:39 73° 101° (ESE) 10:23:00 145.826/435.025
CUBEBUG 2 27 Mar 10:17:42 10:22:05 61° 101° (E) 10:26:36 437.445
UWE-3 27 Mar 10:17:50 10:22:07 49° 100° (E) 10:26:30 435.000/436.395/437.385
FUNcube-1 27 Mar 10:20:03 10:24:10 40° 98° (E) 10:28:24 145.935
AIST 2 27 Mar 10:20:33 10:22:16 13° 109° (ESE) 10:24:13 435.215
VELOX 1 27 Mar 10:23:26 10:24:57 12° 91° (E) 10:26:45 145.980
AISAT 27 Mar 10:26:29 10:28:37 14° 92° (E) 10:31:00 437.250
ZACube-1 27 Mar 10:31:50 10:36:09 57° 100° (E) 10:40:35 437.345
QB50P1 27 Mar 10:31:52 10:35:39 33° 73° (ENE) 10:39:28 145.935-145.965
COMPASS 1 27 Mar 10:32:50 10:36:19 24° 288° (WNW) 10:39:42 437.405
DUCHIFAT 1 27 Mar 10:35:04 10:38:54 35° 74° (ENE) 10:42:46 145.980
VERMONT LUNAR 27 Mar 10:42:35 10:45:47 38° 18° (NNE) 10:49:00 437.305
QB50P2 27 Mar 10:45:30 10:49:35 50° 75° (ENE) 10:53:42 145.880/145.840
ESTCUBE 1 27 Mar 10:48:35 10:50:02 12° 91° (E) 10:51:48 437.505/2401.250
BEESAT 2 27 Mar 10:57:57 11:02:01 67° 299° (WNW) 11:06:09 435.950
UNISAT 6 27 Mar 11:00:49 11:04:56 49° 261° (W) 11:09:06 437.425
PHONESAT 2.4 27 Mar 11:03:27 11:06:39 30° 14° (NNE) 11:09:51 2401.200-2431.200
TIGRISAT 27 Mar 11:12:27 11:16:23 36° 262° (W) 11:20:19 435.000
POPSAT HIP 1 27 Mar 11:14:42 11:18:55 70° 259° (W) 11:23:08 437.405
50 SAT 27 Mar 11:19:35 11:23:36 66° 101° (E) 11:27:38 437.505
UKube-1 27 Mar 11:19:56 11:24:10 53° 285° (WNW) 11:28:21 .
NANOSAT C BR1 27 Mar 11:26:28 11:30:34 48° 261° (W) 11:34:39 145.865
BUGSAT 1 27 Mar 11:26:33 11:30:44 71° 259° (WSW) 11:34:52 437.445
DX 1 27 Mar 11:27:07 11:31:12 41° 286° (WNW) 11:35:15 434.975-435.025
POLYITAN 1 27 Mar 11:28:36 11:32:39 44° 261° (W) 11:36:42 437.675
CINEMA 3 27 Mar 11:29:26 11:30:52 11° 291° (WNW) 11:32:01 145.822/145.860
DELFI C3 27 Mar 11:38:10 11:40:21 14° 290° (WNW) 11:42:20 145.870
BEESAT 3 27 Mar 11:39:05 11:42:12 20° 308° (NW) 11:45:16 437.485
HUMSAT D 27 Mar 11:41:53 11:45:53 40° 285° (WNW) 11:49:53 437.325/437.525
ANTELSAT 27 Mar 11:42:58 11:45:41 16° 267° (W) 11:48:14 437.575/2403.000
UWE-3 27 Mar 11:56:22 11:58:19 12° 291° (WNW) 12:00:03 435.000/436.395/437.385
AIST 2 27 Mar 11:56:25 12:00:30 45° 302° (WNW) 12:04:38 435.215
VELOX 1 27 Mar 11:57:37 12:01:50 46° 286° (WNW) 12:06:02 145.980
FUNcube-1 27 Mar 11:57:42 12:00:14 15° 290° (WNW) 12:02:37 145.935
CUBEBUG 2 27 Mar 11:58:01 11:58:24 10° 291° (WNW) 11:58:29 437.445
AISAT 27 Mar 12:01:19 12:05:27 40° 286° (WNW) 12:09:33 437.250
CUBEBUG 1 27 Mar 12:04:25 12:08:45 89° 101° (E) 12:13:04 437.445
QB50P1 27 Mar 12:09:03 12:11:39 15° 267° (W) 12:14:05 145.935-145.965
ZACube-1 27 Mar 12:11:10 12:12:08 10° 291° (WNW) 12:12:50 437.345
DUCHIFAT 1 27 Mar 12:12:30 12:14:54 14° 267° (W) 12:17:06 145.980
VERMONT LUNAR 27 Mar 12:20:21 12:23:31 37° 213° (SSW) 12:26:42 437.305
TISAT 1 27 Mar 12:21:17 12:24:42 25° 96° (E) 12:28:12 437.305
SPROUT 27 Mar 12:22:52 12:26:41 32° 97° (E) 12:30:33 437.525
ESTCUBE 1 27 Mar 12:22:54 12:27:16 49° 285° (WNW) 12:31:35 437.505/2401.250
PHONESAT 2.4 27 Mar 12:41:39 12:45:11 69° 210° (SSW) 12:48:45 2401.200-2431.200
Gurwin Techsat 1B 27 Mar 13:18:24 13:21:16 15° 67° (ENE) 13:24:24 435.225
Oscar 19 27 Mar 13:18:50 13:23:53 67° 75° (ENE) 13:28:59 437.125/150
SWISSCUBE 27 Mar 13:40:13 13:44:26 32° 97° (E) 13:48:42 437.505
BEESAT 27 Mar 13:43:35 13:47:49 32° 97° (E) 13:52:05 436.000
YUBILEINY 27 Mar 13:46:45 13:55:21 63° 92° (E) 14:04:03 435.215
TISAT 1 27 Mar 13:57:14 14:00:24 20° 289° (WNW) 14:03:27 437.305
SPROUT 27 Mar 13:59:45 14:02:34 17° 290° (WNW) 14:05:14 437.525
ITAMSAT 1 27 Mar 14:19:14 14:24:27 82° 77° (ENE) 14:29:42 435.822/435.867
PHONESAT 2.4 27 Mar 14:22:39 14:23:11 10° 220° (SW) 14:23:33 2401.200-2431.200
KKS-1 27 Mar 14:28:25 14:30:59 16° 93° (E) 14:33:45 437.445
ITUPSAT 1 27 Mar 14:28:36 14:33:25 81° 285° (WNW) 14:38:11 437.325
PCSat 27 Mar 14:36:21 14:41:27 46° 111° (ESE) 14:46:39 145.827
JUGNU 27 Mar 14:36:26 14:40:20 18° 169° (S) 14:44:17 437.505
O/OREOS (USA 219) 27 Mar 14:36:28 14:40:58 63° 69° (ENE) 14:45:26 437.305
AIST 1 27 Mar 14:47:28 14:49:44 14° 73° (ENE) 14:52:12
AO-7 27 Mar 14:49:42 14:56:31 31° 63° (ENE) 15:03:32 29.400- 29.500
Gurwin Techsat 1B 27 Mar 14:55:38 15:00:50 56° 260° (W) 15:06:04 435.225
Oscar 19 27 Mar 15:02:30 15:03:48 11° 271° (W) 15:04:41 437.125/150
STARS 27 Mar 15:04:40 15:08:18 26° 96° (E) 15:12:01 437.465
SWISSCUBE 27 Mar 15:18:29 15:22:09 21° 290° (WNW) 15:25:38 437.505
BEESAT 27 Mar 15:21:50 15:25:30 21° 290° (WNW) 15:29:00 436.000
SRMSAT 27 Mar 15:32:21 15:35:22 14° 166° (SSE) 15:38:29 437.500
HORYU 2 27 Mar 15:32:51 15:37:16 84° 77° (ENE) 15:41:44 437.375
JAS-2 27 Mar 15:44:58 15:51:15 49° 71° (ENE) 15:58:20 435.910
YUBILEINY 27 Mar 15:46:04 15:52:54 23° 291° (WNW) 15:59:23 435.215
KKS-1 27 Mar 16:03:42 16:07:48 36° 287° (WNW) 16:11:51 437.445
PCSat 27 Mar 16:21:03 16:25:09 21° 307° (NW) 16:29:07 145.827
AIST 1 27 Mar 16:23:40 16:27:35 34° 268° (W) 16:31:25
JUGNU 27 Mar 16:24:09 16:28:47 23° 179° (S) 16:33:24 437.505
AO-7 27 Mar 16:40:56 16:49:00 52° 258° (WSW) 16:57:01 29.400- 29.500
STARS 27 Mar 16:41:13 16:44:40 22° 289° (WNW) 16:48:00 437.465
SRMSAT 27 Mar 17:19:30 17:23:57 22° 175° (S) 17:28:25 437.500
MOZHAYETS 4 27 Mar 17:23:19 17:27:59 81° 101° (E) 17:32:37
JAS-2 27 Mar 17:31:14 17:36:40 26° 269° (W) 17:42:23 435.910
AUBIESAT-1 27 Mar 17:34:29 17:38:49 33° 101° (E) 17:43:04 437.475
RS-15 27 Mar 17:49:52 17:57:56 26° 106° (ESE) 18:06:32 29.354- 29.394
M-CUBED/EXP-1 PRIME 27 Mar 17:56:45 18:01:36 68° 105° (ESE) 18:06:20 437.505
Cubesat XI-IV 27 Mar 18:03:59 18:09:17 63° 75° (ENE) 18:14:36 437.490
CUTE-I 27 Mar 18:04:26 18:09:42 63° 75° (ENE) 18:15:01 437.470
GONETS M04 27 Mar 18:08:43 18:12:54 15° 82° (E) 18:17:47
JUGNU 27 Mar 18:13:02 18:17:14 20° 189° (S) 18:21:22 437.505
SO-50 27 Mar 18:39:31 18:43:42 38° 113° (ESE) 18:48:04 436.795
HO-68 27 Mar 18:51:39 18:52:38 10° 58° (ENE) 18:54:11 435.675
STRAND 1 27 Mar 19:04:38 19:09:14 34° 97° (E) 19:13:52 437.568
CUBESAT XI-V 27 Mar 19:04:47 19:09:25 72° 101° (E) 19:14:00 437.345
PRISM 27 Mar 19:07:50 19:11:58 60° 101° (E) 19:16:04 437.425
SRMSAT 27 Mar 19:08:05 19:12:33 22° 185° (S) 19:16:59 437.500
AUBIESAT-1 27 Mar 19:09:36 19:13:25 23° 294° (WNW) 19:17:03 437.475
BEESAT 2 27 Mar 19:22:24 19:25:23 19° 52° (NE) 19:28:26 435.950
M-CUBED/EXP-1 PRIME 27 Mar 19:33:54 19:35:57 12° 298° (WNW) 19:37:43 437.505
Cubesat XI-IV 27 Mar 19:47:24 19:49:53 13° 270° (W) 19:51:59 437.490
CUTE-I 27 Mar 19:47:48 19:50:17 13° 270° (W) 19:52:23 437.470
RS-15 27 Mar 19:58:39 20:09:30 69° 302° (WNW) 20:20:30 29.354- 29.394
BRITE-PL 27 Mar 19:59:33 20:04:10 43° 75° (ENE) 20:08:29 437.365/2234.400
GONETS M04 27 Mar 20:00:09 20:08:51 83° 276° (W) 20:17:38
BEESAT 3 27 Mar 20:01:02 20:05:07 63° 60° (ENE) 20:09:06 437.485
JUGNU 27 Mar 20:04:26 20:05:37 10° 197° (SSW) 20:06:39 437.505
CANX-2 27 Mar 20:07:58 20:11:31 28° 73° (ENE) 20:15:10 2200.000
SO-50 27 Mar 20:20:55 20:24:25 20° 310° (NW) 20:27:54 436.795
CUTE 1.7 + AOD 2 27 Mar 20:21:52 20:25:43 36° 74° (ENE) 20:29:39 437.475
AIST 2 27 Mar 20:22:35 20:26:18 29° 55° (NE) 20:30:00 435.215
HO-68 27 Mar 20:32:14 20:39:20 72° 73° (ENE) 20:46:30 435.675
STRAND 1 27 Mar 20:44:18 20:48:16 22° 291° (WNW) 20:52:04 437.568
DANDE 27 Mar 20:45:36 20:48:20 21° 98° (E) 20:50:43 436.750
DELFI C3 27 Mar 20:46:57 20:48:51 13° 70° (ENE) 20:50:55 145.870
CINEMA 3 27 Mar 20:48:00 20:51:36 28° 73° (ENE) 20:55:13 145.822/145.860
AAUSAT CUBESAT 2 27 Mar 20:53:28 20:57:29 51° 76° (ENE) 21:01:34 437.432
SEEDS 27 Mar 20:53:35 20:57:45 78° 78° (ENE) 21:01:59 437.485
DOVE 4 27 Mar 20:53:50 20:58:18 74° 76° (ENE) 21:02:33 437.250
GOMX 1 27 Mar 20:55:57 21:00:37 67° 259° (W) 21:04:59 467.674
SRMSAT 27 Mar 20:58:01 21:01:06 14° 194° (SSW) 21:04:06 437.500
BEESAT 2 27 Mar 20:59:59 21:03:35 29° 247° (WSW) 21:07:06 435.950
Oscar 11 27 Mar 21:05:02 21:08:48 31° 73° (ENE) 21:12:39 145.826/435.025
UWE-3 27 Mar 21:11:49 21:14:59 22° 72° (ENE) 21:18:14 435.000/436.395/437.385
CUBEBUG 2 27 Mar 21:12:32 21:16:03 28° 73° (ENE) 21:19:37 437.445
FUNcube-1 27 Mar 21:12:59 21:15:41 18° 71° (ENE) 21:18:32 145.935
COMPASS 1 27 Mar 21:18:58 21:23:06 62° 260° (W) 21:27:15 437.405
ZACube-1 27 Mar 21:24:26 21:27:47 25° 73° (ENE) 21:31:12 437.345
BRITE-PL 27 Mar 21:40:01 21:42:51 15° 267° (W) 21:45:20 437.365/2234.400
CANX-2 27 Mar 21:44:28 21:47:30 18° 267° (W) 21:50:24 2200.000
ISS 27 Mar 21:46:55 21:48:28 13° 128° (SE) 21:50:09 145.825
CUSAT 1 27 Mar 21:50:46 21:53:09 19° 280° (W) 21:55:14 437.405
CUTE 1.7 + AOD 2 27 Mar 21:59:33 22:01:50 14° 268° (W) 22:03:56 437.475
AIST 2 27 Mar 22:01:38 22:04:43 19° 249° (WSW) 22:07:38 435.215
50 SAT 27 Mar 22:02:21 22:05:13 21° 72° (ENE) 22:08:13 437.505
GONETS M04 27 Mar 22:03:19 22:07:18 13° 297° (WNW) 22:10:33
ANTELSAT 27 Mar 22:03:57 22:04:31 10° 90° (E) 22:05:28 437.575/2403.000
UKube-1 27 Mar 22:10:10 22:14:29 72° 76° (ENE) 22:18:49 .
RS-15 27 Mar 22:17:21 22:24:36 18° 328° (NNW) 22:31:28 29.354- 29.394
DX 1 27 Mar 22:17:52 22:22:15 86° 257° (WSW) 22:26:38 434.975-435.025
DELFI C3 27 Mar 22:19:57 22:23:43 37° 262° (W) 22:27:31 145.870
HO-68 27 Mar 22:23:13 22:27:46 17° 269° (W) 22:31:52 435.675
CINEMA 3 27 Mar 22:25:56 22:28:53 18° 266° (W) 22:31:39 145.822/145.860
HUMSAT D 27 Mar 22:29:10 22:33:15 77° 76° (ENE) 22:37:22 437.325/437.525
QB50P2 27 Mar 22:37:30 22:38:55 12° 91° (E) 22:40:37 145.880/145.840
Oscar 11 27 Mar 22:42:10 22:45:04 17° 267° (W) 22:47:50 145.826/435.025
UWE-3 27 Mar 22:48:10 22:51:28 22° 265° (W) 22:54:41 435.000/436.395/437.385
FUNcube-1 27 Mar 22:48:17 22:51:53 28° 264° (W) 22:55:25 145.935
CUBEBUG 2 27 Mar 22:49:57 22:52:49 17° 266° (W) 22:55:32 437.445
VELOX 1 27 Mar 22:50:30 22:54:58 88° 78° (ENE) 22:59:26 145.980
AISAT 27 Mar 22:54:23 22:58:51 80° 258° (WSW) 23:03:18 437.250
CUBEBUG 1 27 Mar 22:56:13 23:00:22 42° 74° (ENE) 23:04:32 437.445
UNISAT 6 27 Mar 22:56:48 23:01:13 46° 99° (E) 23:05:43 437.425
ZACube-1 27 Mar 23:01:05 23:04:10 19° 266° (W) 23:07:08 437.345
POPSAT HIP 1 27 Mar 23:04:56 23:08:26 26° 96° (E) 23:12:01 437.405
TIGRISAT 27 Mar 23:07:49 23:12:21 61° 100° (E) 23:16:58 435.000
TISAT 1 27 Mar 23:11:34 23:12:49 11° 69° (ENE) 23:14:18 437.305
BUGSAT 1 27 Mar 23:14:04 23:17:10 22° 95° (E) 23:20:22 437.445
SPROUT 27 Mar 23:14:10 23:16:33 15° 70° (ENE) 23:19:07 437.525
NANOSAT C BR1 27 Mar 23:16:01 23:19:53 35° 98° (E) 23:23:47 145.865
ESTCUBE 1 27 Mar 23:17:44 23:22:18 87° 77° (ENE) 23:26:53 437.505/2401.250
POLYITAN 1 27 Mar 23:18:31 23:22:30 39° 98° (E) 23:26:30 437.675
ISS 27 Mar 23:21:33 23:24:38 40° 319° (NW) 23:27:43 145.825
PCSat 27 Mar 23:29:54 23:33:04 16° 50° (NE) 23:36:28 145.827
50 SAT 27 Mar 23:37:02 23:40:05 21° 265° (W) 23:43:02 437.505
ANTELSAT 27 Mar 23:37:11 23:41:43 59° 284° (WNW) 23:46:18 437.575/2403.000
QB50P1 27 Mar 23:56:43 00:00:55 67° 284° (WNW) 00:05:07 145.935-145.965
DUCHIFAT 1 27 Mar 23:59:38 00:03:48 63° 284° (WNW) 00:07:58 145.980
YUBILEINY 28 Mar 00:03:39 00:10:18 25° 70° (ENE) 00:17:17 435.215
QB50P2 28 Mar 00:11:05 00:15:06 43° 286° (WNW) 00:19:07 145.880/145.840
CUBEBUG 1 28 Mar 00:34:40 00:36:58 13° 268° (W) 00:39:00 437.445
UNISAT 6 28 Mar 00:35:10 00:37:41 14° 291° (WNW) 00:39:59 437.425
POPSAT HIP 1 28 Mar 00:41:02 00:44:12 20° 289° (WNW) 00:47:15 437.405
SWISSCUBE 28 Mar 00:43:01 00:46:42 23° 70° (ENE) 00:50:31 437.505
TISAT 1 28 Mar 00:44:10 00:48:16 48° 261° (W) 00:52:21 437.305
BEESAT 28 Mar 00:46:19 00:49:59 23° 70° (ENE) 00:53:47 436.000
TIGRISAT 28 Mar 00:47:24 00:48:41 11° 292° (WNW) 00:49:40 435.000
SPROUT 28 Mar 00:48:24 00:52:23 36° 262° (W) 00:56:21 437.525
BUGSAT 1 28 Mar 00:49:29 00:52:35 21° 288° (WNW) 00:55:35 437.445
NANOSAT C BR1 28 Mar 00:53:00 00:55:30 15° 290° (WNW) 00:57:49 145.865
POLYITAN 1 28 Mar 00:55:51 00:58:08 14° 291° (WNW) 01:00:12 437.675
PCSat 28 Mar 01:11:39 01:17:00 63° 248° (WSW) 01:22:20 145.827
ITUPSAT 1 28 Mar 01:30:52 01:35:38 70° 75° (ENE) 01:40:27 437.325
Oscar 19 28 Mar 01:35:11 01:39:49 34° 97° (E) 01:44:31 437.125/150
STARS 28 Mar 01:58:57 02:01:05 14° 69° (ENE) 02:03:26 437.465
YUBILEINY 28 Mar 01:59:08 02:07:47 60° 268° (W) 02:16:17 435.215
SWISSCUBE 28 Mar 02:20:14 02:24:26 29° 263° (W) 02:28:36 437.505
BEESAT 28 Mar 02:23:29 02:27:42 30° 263° (W) 02:31:51 436.000
ITAMSAT 1 28 Mar 02:36:53 02:41:45 42° 98° (E) 02:46:39 435.822/435.867
RS-15 28 Mar 02:53:43 03:02:28 25° 39° (NE) 03:11:56 29.354- 29.394
KKS-1 28 Mar 02:57:01 03:01:27 71° 258° (WSW) 03:05:52 437.445
O/OREOS (USA 219) 28 Mar 03:07:37 03:09:29 13° 100° (E) 03:11:38 437.305
AIST 1 28 Mar 03:14:07 03:14:59 11° 88° (E) 03:16:09
Oscar 19 28 Mar 03:14:55 03:19:01 23° 290° (WNW) 03:22:58 437.125/150
Gurwin Techsat 1B 28 Mar 03:16:16 03:21:35 86° 99° (E) 03:26:55 435.225
SO-50 28 Mar 03:16:28 03:18:52 14° 46° (NE) 03:21:28 436.795
HORYU 2 28 Mar 03:29:19 03:32:50 23° 95° (E) 03:36:28 437.375
STARS 28 Mar 03:33:04 03:37:14 42° 261° (W) 03:41:23 437.465
ITAMSAT 1 28 Mar 04:17:20 04:21:00 19° 292° (WNW) 04:24:28 435.822/435.867
